TITAN 3C TRANSTAGE DEB, 1915

Orbit data source: Space-Track

TITAN 3C TRANSTAGE DEB, 1915 is space debris in LEO originally from a launch on Fri, 15 Oct 1965 UTC launched from the Air Force Eastern Test Range (AFETR). Debris objects in space refer to the collection of defunct objects orbiting the Earth. Examples of debris include non-operational satellites, rocket bodies, and fragments generated from explosions, collisions, or faulty payload assembly.

Loading next visibility...
Identifier
1915, 1965-082FZ
Orbit
LEO
Last TLE update
13 hours ago
Origin
Manufacturer
Unknown
Mission
Spacecraft
Bus & Motor
Unknown
Mass
Unknown
Launch date (UTC)
1965-10-15 (60 years ago)
Launch vehicle
Unknown
Launch site
Air Force Eastern Test Range (AFETR)
Object type
Payload
Rocket body
Debris
Shape & HBR
Unknown
Radar Cross Section
Small (<0.1 m²)

Expand to show TLE details & history

TLE from 13 hours ago
0 TITAN 3C TRANSTAGE DEB
1  1915U 65082FZ  25186.17751923  .00000382  00000-0  72331-4 0  9997
2  1915  31.8752 176.9581 0028879  22.1049 338.0830 14.58077183165510
Epoch: 2025-07-05T04:15Z
TLE epoch observation values (Epoch: 2025-07-05T04:15:37.661Z)
Latitude
-0.00001°
Longitude
-170.36814°
Altitude
679.068 km
Speed
7.529 km/s
True Right ascension
11h 47m 49s
True Declination
0° 00' 00"
Sunlit
Object was in daylight at epoch
Visualization orbit readout
Latitude
-26.63809°
Longitude
59.89315°
Altitude
722.537 km
Speed
7.486 km/s
Apparent Right ascension
00h 01m 14s
Apparent Declination
-69° 06' 53"
Sunlit
Object is in daylight
Visualization observer readout
Local Sidereal Time
04:46:07
Azimuth
203.128° SW
Elevation
-30.763°
Doppler factor
1
Orbital elements
Apogee altitude
723.465 km
Perigee altitude
682.565 km
Semi-major axis
7,081.152 km
Eccentricity
0.00289
Inclination
31.8752°
RAAN
176.9581°
Arg. of periapsis
22.1049°
True anomaly
Unknown
Mean anomaly
338.083°
Eccentric anomaly
Unknown
Mean motion
3.6424 °/min
Orbital period
98.84 mins
BSTAR
0.000072331
Loading maneuver chart data...
Loading SW <> Apogee altitude chart data...

TITAN 3C TRANSTAGE DEB Visibility forecast

Observer location: undefined°, undefined°

Span
Click to sort rows by Start time (UTC) header in descending order
Start Az.
Max El. time (UTC)
Max El. Az.
Max El.
End time (UTC)
End Az.
7 mins2025-07-06 03:30:50.787Z214.369° SW2025-07-06 03:34:50.787Z158.33° S21.044°2025-07-06 03:37:50.787Z117.243° SE
7 mins2025-07-06 05:15:50.787Z229.285° WSW2025-07-06 05:18:50.787Z173.372° S27.933°2025-07-06 05:22:50.787Z117.53° SE
6 mins2025-07-06 06:59:50.787Z238.642° WSW2025-07-06 07:02:50.787Z191.879° SSW22.959°2025-07-06 07:05:50.787Z146.98° SSE
|